This is the latest recevied weather packets stored in our database for station/object WA7CUG. If no packets are shown the sender has not sent any weather packets the latest 10 day(s).
| Time | Temp. | Humidity | Pressure | Rain* | Wind** | Luminosity | Snow |
|---|---|---|---|---|---|---|---|
| 1778100273 | 29.44° C | 28% | 1010.4 hPa | 0 mm | - | 485 W/m² | - |
| 1778099970 | 29.44° C | 29% | 1010.5 hPa | 0 mm | - | 550 W/m² | - |
| 1778099667 | 28.89° C | 34% | 1010.5 hPa | 0 mm | - | 547 W/m² | - |
| 1778099364 | 28.89° C | 31% | 1010.5 hPa | 0 mm | - | 545 W/m² | - |
| 1778099061 | 28.89° C | 32% | 1010.5 hPa | 0 mm | - | 652 W/m² | - |
| 1778098757 | 28.89° C | 31% | 1010.7 hPa | 0 mm | - | 345 W/m² | - |
| 1778098455 | 28.33° C | 34% | 1010.8 hPa | 0 mm | - | 671 W/m² | - |
| 1778098151 | 28.33° C | 34% | 1010.8 hPa | 0 mm | - | 663 W/m² | - |
| 1778097847 | 28.33° C | 32% | 1010.7 hPa | 0 mm | - | 640 W/m² | - |
| 1778097544 | 27.78° C | 35% | 1010.9 hPa | 0 mm | - | 673 W/m² | - |
| 1778097241 | 27.22° C | 37% | 1010.9 hPa | 0 mm | - | 661 W/m² | - |
| 1778096938 | 27.22° C | 36% | 1010.9 hPa | 0 mm | - | 569 W/m² | - |
| 1778096635 | 26.67° C | 36% | 1010.8 hPa | 0 mm | - | 704 W/m² | - |
| 1778096332 | 27.78° C | 39% | 1011.1 hPa | 0 mm | - | 707 W/m² | - |
| 1778096029 | 27.78° C | 37% | 1011.1 hPa | 0 mm | - | 721 W/m² | - |
| 1778095725 | 27.22° C | 36% | 1011.4 hPa | 0 mm | - | 588 W/m² | - |
| 1778095422 | 26.67° C | 41% | 1011.8 hPa | 0 mm | - | 658 W/m² | - |
| 1778095119 | 26.11° C | 41% | 1011.7 hPa | 0 mm | - | 623 W/m² | - |
| 1778094815 | 26.11° C | 40% | 1011.8 hPa | 0 mm | - | 640 W/m² | - |
| 1778094513 | 26.11° C | 39% | 1011.8 hPa | 0 mm | - | 581 W/m² | - |
| 1778094209 | 26.67° C | 38% | 1011.9 hPa | 0 mm | - | 647 W/m² | - |
| 1778093906 | 25.56° C | 44% | 1012 hPa | 0 mm | - | 531 W/m² | - |
| 1778093603 | 25.56° C | 45% | 1012.1 hPa | 0 mm | - | 652 W/m² | - |
| 1778093300 | 25° C | 44% | 1012.2 hPa | 0 mm | - | 636 W/m² | - |
| 1778092997 | 25° C | 45% | 1012.3 hPa | 0 mm | - | 634 W/m² | - |
* Rain latest hour (hover to see other rain measurements)
** Current wind speed in m/s (hover to see current wind gust speed)